Weather History for Altus AFB, OK

Change the Weather History Date:

Sunday, April 28, 2013

  Actual Average Record
Temperature  
Mean Temperature 68 °F -  
Max Temperature 89 °F 75 °F 89 °F (2013)
Min Temperature 46 °F 51 °F 36 °F (2008)
Cooling Degree Days 2    
Growing Degree Days 18 (Base 50)    
Moisture  
Dew Point 46 °F    
Average Humidity 52    
Maximum Humidity 100    
Minimum Humidity 18    
Precipitation  
Precipitation 0.00 in - - ()
Sea Level Pressure  
Sea Level Pressure 29.89 in    
Wind  
Wind Speed 7 mph (SSE)    
Max Wind Speed 17 mph    
Max Gust Speed 24 mph    
Visibility 8 miles    
Events      
Averages and records for this station are not official NWS values.
T = Trace of Precipitation, MM = Missing Value Source: NWS Daily Summary

Daily Weather History Graph

Daily Weather History Graph

Search for Another Location

Airport:

Trip Planner

Search our weather history database for the weather conditions in past years. The results will help you decide how hot, cold, wet, or windy it might be!

Date:

Astronomy

Apr. 28, 2013 Rise Set
Actual Time 6:49 AM CDT 8:19 PM CDT
Civil Twilight 6:22 AM CDT 8:46 PM CDT
Nautical Twilight 5:50 AM CDT 9:18 PM CDT
Astronomical Twilight 5:17 AM CDT 9:52 PM CDT
Moon 11:47 PM CDT (4/28) 9:12 AM CDT (4/28)
Length of Visible Light 14h 23m
Length of Day
13h 30m
Waning Gibbous, 88% of the Moon is Illuminated
Apr 28
Waning Gibbous
May 2
Last Quarter
May 9
New
May 17
First Quarter
May 24
Full

Hourly Weather History & Observations

Time (CDT) Temp. Windchill Dew Point Humidity Pressure Visibility Wind Dir Wind Speed Gust Speed Precip Events Conditions
12:58 AM 51.3 °F - 47.5 °F 87% 29.99 in 10.0 mi ESE 3.5 mph - N/A   Clear
1:58 AM 48.6 °F - 46.6 °F 93% 29.99 in 10.0 mi Calm Calm - N/A   Clear
2:58 AM 48.0 °F - 47.7 °F 99% 29.97 in 10.0 mi ENE 5.8 mph - N/A   Clear
3:58 AM 48.6 °F - 48.6 °F 100% 29.97 in 10.0 mi East 4.6 mph - N/A   Clear
4:58 AM 46.2 °F 44.1 °F 46.2 °F 100% 29.97 in 10.0 mi East 4.6 mph - N/A   Clear
5:58 AM 48.9 °F - 48.9 °F 100% 29.97 in 10.0 mi ESE 3.5 mph - N/A   Clear
6:58 AM 47.5 °F - 47.5 °F 100% 29.99 in 10.0 mi East 4.6 mph - N/A   Clear
7:58 AM 48.6 °F - 48.6 °F 100% 30.02 in 10.0 mi ENE 1.2 mph - N/A   Clear
8:58 AM 56.5 °F - 54.3 °F 92% 30.02 in 10.0 mi SE 6.9 mph - N/A   Clear
9:58 AM 63.9 °F - 52.7 °F 67% 29.99 in 10.0 mi South 8.1 mph - N/A   Clear
10:58 AM 70.3 °F - 50.7 °F 50% 29.98 in 10.0 mi SW 3.5 mph - N/A   Clear
11:58 AM 77.4 °F - 43.9 °F 30% 29.95 in 10.0 mi South 8.1 mph - N/A   Clear
12:58 PM 81.3 °F - 43.9 °F 27% 29.92 in 10.0 mi SSW 9.2 mph - N/A   Clear
1:58 PM 84.4 °F - 43.5 °F 24% 29.88 in 4.0 mi SSW 13.8 mph 19.6 mph N/A   Haze
2:18 PM 84.2 °F - 42.8 °F 23% 29.90 in 2.0 mi South 13.8 mph 19.6 mph N/A   Haze
2:28 PM 84.2 °F - 42.8 °F 23% 29.89 in 4.0 mi South 12.7 mph 19.6 mph N/A   Haze
2:58 PM 86.2 °F - 41.9 °F 21% 29.85 in 6.0 mi SSE 17.3 mph 20.7 mph N/A   Haze
3:08 PM 86.0 °F - 42.8 °F 22% 29.87 in 2.0 mi SSE 11.5 mph 24.2 mph N/A   Haze
3:13 PM 86.0 °F - 41.0 °F 20% 29.87 in 4.0 mi South 16.1 mph 24.2 mph N/A   Haze
3:58 PM 88.0 °F - 40.8 °F 19% 29.81 in 5.0 mi SSE 11.5 mph 20.7 mph N/A   Haze
4:28 PM 87.8 °F - 41.0 °F 19% 29.81 in 2.0 mi South 12.7 mph 17.3 mph N/A   Haze
4:38 PM 89.6 °F - 41.0 °F 18% 29.81 in 3.0 mi South 11.5 mph - N/A   Haze
4:58 PM 89.4 °F - 41.7 °F 19% 29.77 in 9.0 mi SSE 8.1 mph 19.6 mph N/A   Clear
5:58 PM 88.7 °F - 41.0 °F 19% 29.76 in 8.0 mi South 16.1 mph - N/A   Clear
6:58 PM 87.3 °F - 39.7 °F 19% 29.74 in 8.0 mi SSE 15.0 mph - N/A   Clear
7:58 PM 80.1 °F - 47.8 °F 32% 29.76 in 10.0 mi SE 10.4 mph - N/A   Clear
8:58 PM 72.5 °F - 48.2 °F 42% 29.78 in 10.0 mi SSE 8.1 mph - N/A   Clear
9:58 PM 71.2 °F - 50.9 °F 49% 29.79 in 10.0 mi ESE 8.1 mph - N/A   Clear
10:58 PM 65.7 °F - 56.7 °F 73% 29.80 in 10.0 mi ESE 8.1 mph - N/A   Clear
11:58 PM 66.2 °F - 61.2 °F 84% 29.80 in 10.0 mi ESE 9.2 mph - N/A   Clear